Regional Weather Roundup
Issued by NWS

Home | Current Version | Previous Version | Graphics & Text | Print | Product List | Glossary On
Versions: 1 2 3 4 5 6 7 8 9 10 11 12 13 14 15 16 17 18 19 20 21 22 23 24 25 26 27 28 29 30 31 32 33 34 35 36 37 38 39 40 41 42 43 44 45 46 47 48 49 50
000
ASUS43 KOAX 302002
RWRNE

WEATHER ROUNDUP FOR NEBRASKA
NATIONAL WEATHER SERVICE OMAHA NE
300 PM CDT SAT APR 30 2016

NOTES: SATELLITE DATA IS BEING USED TO AUGMENT CLOUD COVER ABOVE
       12000 FEET.
       "FAIR" INDICATES FEW OR NO CLOUDS BELOW 12,000 FEET WITH NO
       SIGNIFICANT WEATHER AND/OR OBSTRUCTIONS TO VISIBILITY.

  * THESE STATIONS DO NOT REPORT WEATHER SUCH AS RAIN...SNOW OR FOG.

NEZ001>004-019>022-054>056-302100-
NEBRASKA PANHANDLE

CITY           SKY/WX    TMP DP  RH WIND       PRES   REMARKS
SCOTTSBLUFF    LGT RAIN  38  37  97 N16G26    30.01R WCI  29
ALLIANCE       LGT SNOW  34  32  92 N21       29.96R FOG     WCI  22
CHADRON        LGT RAIN  44  35  70 NE29G43   30.03R
KIMBALL        SNOW      34  33  96 N21G26    29.97R VSB 1/2 WCI  22
SIDNEY         SNOW      34  32  92 N20       29.93R VSB 1/2 WCI  23
$$

NEZ057>060-069>072-079>082-302100-
SOUTHWEST NEBRASKA

CITY           SKY/WX    TMP DP  RH WIND       PRES   REMARKS
NORTH PLATTE   LGT SNOW  35  33  92 N20       29.84S FOG     WCI  24
IMPERIAL       LGT SNOW  34  32  92 N16       29.87R VSB 1   WCI  24
LEXINGTON      CLOUDY    42  38  86 N17       29.81R
MCCOOK         CLOUDY    42  36  79 N14       29.83R
$$

NEZ005>010-023>029-035>040-094-302100-
NORTH CENTRAL NEBRASKA

CITY           SKY/WX    TMP DP  RH WIND       PRES   REMARKS
VALENTINE      RAIN      39  35  86 NE25G35   29.93R WCI  28
AINSWORTH      LGT SNOW  34  33  97 N15G24    29.90S WCI  24
BROKEN BOW     LGT RAIN  39  37  92 N16       29.82R FOG     WCI  30
ORD            LGT RAIN  42  40  92 NE18      29.80R FOG
$$

NEZ041-046>049-061>064-073>077-083>087-302100-
SOUTH CENTRAL NEBRASKA

CITY           SKY/WX    TMP DP  RH WIND       PRES   REMARKS
GRAND ISLAND   LGT RAIN  45  43  93 N12       29.78R
AURORA         CLOUDY    46  46  98 N10       29.76R FOG
HASTINGS       LGT RAIN  45  43  93 N9        29.77R FOG
KEARNEY *      CLOUDY    45  41  87 N15       29.79R
YORK           LGT RAIN  46  46 100 N10       29.75R
$$

NEZ011>018-030>034-042>045-302100-
NORTHEAST NEBRASKA

CITY           SKY/WX    TMP DP  RH WIND       PRES   REMARKS
NORFOLK        CLOUDY    45  42  89 NE12G22   29.78R FOG
ALBION         CLOUDY    44  42  93 NE13      29.79R FOG
BLAIR          LGT RAIN  49  47  95 NE14      29.74R
COLUMBUS *     CLOUDY    46  39  76 NE10      29.77R
FREMONT        CLOUDY    48  47  97 E9G16     29.76R FOG
TEKAMAH        CLOUDY    48  46  93 NE12      29.77S
$$

NEZ050>053-065>068-078-088>093-302100-
SOUTHEAST NEBRASKA

CITY           SKY/WX    TMP DP  RH WIND       PRES   REMARKS
LINCOLN        LGT RAIN  52  50  93 E7        29.75R FOG
OMAHA EPPLEY   DRIZZLE   50  48  93 E5        29.76R FOG
FALLS CITY     PTSUNNY   60  53  77 W13       29.71R
$$

NEZ044-045-051>053-067-302100-
OMAHA AREA

CITY           SKY/WX    TMP DP  RH WIND       PRES   REMARKS
OMAHA EPPLEY   DRIZZLE   50  48  93 E5        29.76R FOG
BLAIR          LGT RAIN  49  47  95 NE14      29.74R
FREMONT        CLOUDY    48  47  97 E9G16     29.76R FOG
OFFUTT AFB     CLOUDY    51  50  98 E10       29.74R
$$




USA.gov is the U.S. government's official web portal to all federal, state and local government web resources and services.